Location: Lafig�re
(44.4503°N, 4.0357°E)
Time: 16:17:19
(UTC+00:00)

Vanguard 2 Rocket - Pass Details

Date: 19 June 2021
Orbit: 555 x 3325 km, 32.9° (Epoch: 28 July)

Event Time Altitude Azimuth Distance (km) Brightness Sun altitude
Rises 19:45:59 0° 243° (WSW) 7,302 11.9 -2.9°
Reaches altitude 10° 19:51:11 10° 239° (WSW) 6,264 11.5 -3.6°
Maximum altitude 20:09:35 51° 172° (S) 3,243 9.4 -6.1°
Drops below altitude 10° 20:22:07 10° 102° (ESE) 4,410 9.9 -7.8°
Sets 20:25:04 0° 97° (E) 5,087 10.2 -8.2°
